Location: Black Creek
(40.9000°S, 175.5500°E)
Time: 18:59:24
(UTC+00:00)

Cosmos 220 Rocket - Pass Details

Date: 04 August 2024
Orbit: 555 x 594 km, 74.0° (Epoch: 18 September)

Event Time Altitude Azimuth Distance (km) Brightness Sun altitude
Rises 18:43:21 0° 208° (SSW) 2,838 7.0 -7.4°
Reaches altitude 10° 18:45:43 10° 216° (SW) 1,921 6.1 -7.0°
Maximum altitude 18:49:38 36° 282° (WNW) 924 4.5 -6.3°
Drops below altitude 10° 18:53:28 10° 349° (N) 1,871 6.6 -5.6°
Sets 18:55:45 0° 358° (N) 2,752 7.6 -5.2°
